Year,Month,Day,Hour,Minute,Value (Times are PST for temperature in C)
2017,09,03,00,00,18.40
2017,09,03,00,01,18.40
2017,09,03,00,02,18.40
2017,09,03,00,03,18.40
2017,09,03,00,04,18.40
2017,09,03,00,05,18.40
2017,09,03,00,06,18.40
2017,09,03,00,07,18.40
2017,09,03,00,08,18.40
2017,09,03,00,09,18.40
2017,09,03,00,10,18.40
2017,09,03,00,11,18.40
2017,09,03,00,12,18.30
2017,09,03,00,13,18.30
2017,09,03,00,14,18.30
2017,09,03,00,15,18.30
2017,09,03,00,16,18.30
2017,09,03,00,17,18.30
2017,09,03,00,18,18.20
2017,09,03,00,19,18.20
2017,09,03,00,20,18.20
2017,09,03,00,21,18.20
2017,09,03,00,22,18.20
2017,09,03,00,23,18.20
2017,09,03,00,24,18.20
2017,09,03,00,25,18.20
2017,09,03,00,26,18.20
2017,09,03,00,27,18.10
2017,09,03,00,28,18.10
2017,09,03,00,29,18.10
2017,09,03,00,30,18.00
2017,09,03,00,31,18.00
2017,09,03,00,32,18.00
2017,09,03,00,33,18.00
2017,09,03,00,34,18.00
2017,09,03,00,35,18.00
2017,09,03,00,36,18.00
2017,09,03,00,37,18.00
2017,09,03,00,38,18.00
2017,09,03,00,39,18.00
2017,09,03,00,40,18.00
2017,09,03,00,41,18.00
2017,09,03,00,42,18.00
2017,09,03,00,43,18.00
2017,09,03,00,44,17.90
2017,09,03,00,45,17.90
2017,09,03,00,46,17.90
2017,09,03,00,47,17.90
2017,09,03,00,48,17.90
2017,09,03,00,49,17.90
2017,09,03,00,50,17.90
2017,09,03,00,51,17.90
2017,09,03,00,52,17.90
2017,09,03,00,53,17.90
2017,09,03,00,54,17.90
2017,09,03,00,55,17.90
2017,09,03,00,56,17.90
2017,09,03,00,57,17.80
2017,09,03,00,58,17.80
2017,09,03,00,59,17.80
2017,09,03,01,00,17.80
2017,09,03,01,01,17.80
2017,09,03,01,02,17.80
2017,09,03,01,03,17.80
2017,09,03,01,04,17.70
2017,09,03,01,05,17.70
2017,09,03,01,06,17.70
2017,09,03,01,07,17.60
2017,09,03,01,08,17.60
2017,09,03,01,09,17.60
2017,09,03,01,10,17.60
2017,09,03,01,11,17.50
2017,09,03,01,12,17.50
2017,09,03,01,13,17.50
2017,09,03,01,14,17.50
2017,09,03,01,15,17.40
2017,09,03,01,16,17.40
2017,09,03,01,17,17.40
2017,09,03,01,18,17.40
2017,09,03,01,19,17.40
2017,09,03,01,20,17.40
2017,09,03,01,21,17.40
2017,09,03,01,22,17.40
2017,09,03,01,23,17.40
2017,09,03,01,24,17.40
2017,09,03,01,25,17.40
2017,09,03,01,26,17.40
2017,09,03,01,27,17.30
2017,09,03,01,28,17.30
2017,09,03,01,29,17.30
2017,09,03,01,30,17.30
2017,09,03,01,31,17.30
2017,09,03,01,32,17.30
2017,09,03,01,33,17.30
2017,09,03,01,34,17.30
2017,09,03,01,35,17.20
2017,09,03,01,36,17.20
2017,09,03,01,37,17.20
2017,09,03,01,38,17.20
2017,09,03,01,39,17.20
2017,09,03,01,40,17.20
2017,09,03,01,41,17.20
2017,09,03,01,42,17.10
2017,09,03,01,43,17.10
2017,09,03,01,44,17.10
2017,09,03,01,45,17.10
2017,09,03,01,46,17.10
2017,09,03,01,47,17.10
2017,09,03,01,48,17.00
2017,09,03,01,49,17.00
2017,09,03,01,50,17.00
2017,09,03,01,51,16.90
2017,09,03,01,52,16.90
2017,09,03,01,53,16.90
2017,09,03,01,54,16.90
2017,09,03,01,55,16.90
2017,09,03,01,56,16.90
2017,09,03,01,57,16.90
2017,09,03,01,58,16.90
2017,09,03,01,59,16.90
2017,09,03,02,00,16.80
2017,09,03,02,01,16.80
2017,09,03,02,02,16.80
2017,09,03,02,03,16.80
2017,09,03,02,04,16.80
2017,09,03,02,05,16.80
2017,09,03,02,06,16.80
2017,09,03,02,07,16.80
2017,09,03,02,08,16.80
2017,09,03,02,09,16.80
2017,09,03,02,10,16.80
2017,09,03,02,11,16.80
2017,09,03,02,12,16.80
2017,09,03,02,13,16.80
2017,09,03,02,14,16.80
2017,09,03,02,15,16.70
2017,09,03,02,16,16.70
2017,09,03,02,17,16.70
2017,09,03,02,18,16.60
2017,09,03,02,19,16.60
2017,09,03,02,20,16.60
2017,09,03,02,21,16.60
2017,09,03,02,22,16.60
2017,09,03,02,23,16.60
2017,09,03,02,24,16.60
2017,09,03,02,25,16.60
2017,09,03,02,26,16.60
2017,09,03,02,27,16.60
2017,09,03,02,28,16.60
2017,09,03,02,29,16.60
2017,09,03,02,30,16.60
2017,09,03,02,31,16.60
2017,09,03,02,32,16.60
2017,09,03,02,33,16.60
2017,09,03,02,34,16.60
2017,09,03,02,35,16.60
2017,09,03,02,36,16.60
2017,09,03,02,37,16.60
2017,09,03,02,38,16.60
2017,09,03,02,39,16.60
2017,09,03,02,40,16.60
2017,09,03,02,41,16.60
2017,09,03,02,42,16.60
2017,09,03,02,43,16.60
2017,09,03,02,44,16.60
2017,09,03,02,45,16.60
2017,09,03,02,46,16.60
2017,09,03,02,47,16.60
2017,09,03,02,48,16.60
2017,09,03,02,49,16.50
2017,09,03,02,50,16.50
2017,09,03,02,51,16.50
2017,09,03,02,52,16.50
2017,09,03,02,53,16.50
2017,09,03,02,54,16.50
2017,09,03,02,55,16.50
2017,09,03,02,56,16.40
2017,09,03,02,57,16.40
2017,09,03,02,58,16.40
2017,09,03,02,59,16.40
2017,09,03,03,00,16.40
2017,09,03,03,01,16.40
2017,09,03,03,02,16.50
2017,09,03,03,03,16.50
2017,09,03,03,04,16.50
2017,09,03,03,05,16.50
2017,09,03,03,06,16.50
2017,09,03,03,07,16.50
2017,09,03,03,08,16.50
2017,09,03,03,09,16.50
2017,09,03,03,10,16.50
2017,09,03,03,11,16.50
2017,09,03,03,12,16.50
2017,09,03,03,13,16.50
2017,09,03,03,14,16.50
2017,09,03,03,15,16.50
2017,09,03,03,16,16.50
2017,09,03,03,17,16.40
2017,09,03,03,18,16.40
2017,09,03,03,19,16.40
2017,09,03,03,20,16.40
2017,09,03,03,21,16.30
2017,09,03,03,22,16.30
2017,09,03,03,23,16.30
2017,09,03,03,24,16.30
2017,09,03,03,25,16.20
2017,09,03,03,26,16.20
2017,09,03,03,27,16.20
2017,09,03,03,28,16.20
2017,09,03,03,29,16.20
2017,09,03,03,30,16.20
2017,09,03,03,31,16.30
2017,09,03,03,32,16.30
2017,09,03,03,33,16.20
2017,09,03,03,34,16.20
2017,09,03,03,35,16.20
2017,09,03,03,36,16.20
2017,09,03,03,37,16.20
2017,09,03,03,38,16.20
2017,09,03,03,39,16.20
2017,09,03,03,40,16.20
2017,09,03,03,41,16.20
2017,09,03,03,42,16.10
2017,09,03,03,43,16.10
2017,09,03,03,44,16.10
2017,09,03,03,45,16.10
2017,09,03,03,46,16.00
2017,09,03,03,47,16.00
2017,09,03,03,48,16.00
2017,09,03,03,49,16.00
2017,09,03,03,50,15.90
2017,09,03,03,51,15.90
2017,09,03,03,52,15.90
2017,09,03,03,53,15.90
2017,09,03,03,54,15.90
2017,09,03,03,55,15.90
2017,09,03,03,56,15.90
2017,09,03,03,57,15.90
2017,09,03,03,58,15.90
2017,09,03,03,59,15.90
2017,09,03,04,00,15.90
2017,09,03,04,01,15.90
2017,09,03,04,02,15.90
2017,09,03,04,03,15.90
2017,09,03,04,04,15.90
2017,09,03,04,05,15.90
2017,09,03,04,06,15.90
2017,09,03,04,07,15.90
2017,09,03,04,08,15.90
2017,09,03,04,09,15.80
2017,09,03,04,10,15.80
2017,09,03,04,11,15.80
2017,09,03,04,12,15.80
2017,09,03,04,13,15.80
2017,09,03,04,14,15.80
2017,09,03,04,15,15.70
2017,09,03,04,16,15.70
2017,09,03,04,17,15.70
2017,09,03,04,18,15.70
2017,09,03,04,19,15.70
2017,09,03,04,20,15.60
2017,09,03,04,21,15.60
2017,09,03,04,22,15.60
2017,09,03,04,23,15.60
2017,09,03,04,24,15.60
2017,09,03,04,25,15.60
2017,09,03,04,26,15.60
2017,09,03,04,27,15.60
2017,09,03,04,28,15.50
2017,09,03,04,29,15.50
2017,09,03,04,30,15.50
2017,09,03,04,31,15.50
2017,09,03,04,32,15.50
2017,09,03,04,33,15.50
2017,09,03,04,34,15.50
2017,09,03,04,35,15.50
2017,09,03,04,36,15.50
2017,09,03,04,37,15.50
2017,09,03,04,38,15.50
2017,09,03,04,39,15.40
2017,09,03,04,40,15.40
2017,09,03,04,41,15.40
2017,09,03,04,42,15.40
2017,09,03,04,43,15.40
2017,09,03,04,44,15.40
2017,09,03,04,45,15.40
2017,09,03,04,46,15.40
2017,09,03,04,47,15.40
2017,09,03,04,48,15.40
2017,09,03,04,49,15.30
2017,09,03,04,50,15.30
2017,09,03,04,51,15.30
2017,09,03,04,52,15.30
2017,09,03,04,53,15.20
2017,09,03,04,54,15.20
2017,09,03,04,55,15.20
2017,09,03,04,56,15.20
2017,09,03,04,57,15.10
2017,09,03,04,58,15.10
2017,09,03,04,59,15.10
2017,09,03,05,00,15.10
2017,09,03,05,01,15.10
2017,09,03,05,02,15.10
2017,09,03,05,03,15.00
2017,09,03,05,04,15.00
2017,09,03,05,05,15.00
2017,09,03,05,06,15.00
2017,09,03,05,07,14.90
2017,09,03,05,08,14.90
2017,09,03,05,09,14.90
2017,09,03,05,10,14.90
2017,09,03,05,11,14.90
2017,09,03,05,12,14.90
2017,09,03,05,13,14.80
2017,09,03,05,14,14.80
2017,09,03,05,15,14.80
2017,09,03,05,16,14.80
2017,09,03,05,17,14.80
2017,09,03,05,18,14.70
2017,09,03,05,19,14.70
2017,09,03,05,20,14.70
2017,09,03,05,21,14.70
2017,09,03,05,22,14.70
2017,09,03,05,23,14.70
2017,09,03,05,24,14.70
2017,09,03,05,25,14.70
2017,09,03,05,26,14.70
2017,09,03,05,27,14.60
2017,09,03,05,28,14.60
2017,09,03,05,29,14.60
2017,09,03,05,30,14.60
2017,09,03,05,31,14.60
2017,09,03,05,32,14.60
2017,09,03,05,33,14.60
2017,09,03,05,34,14.60
2017,09,03,05,35,14.60
2017,09,03,05,36,14.60
2017,09,03,05,37,14.60
2017,09,03,05,38,14.50
2017,09,03,05,39,14.50
2017,09,03,05,40,14.50
2017,09,03,05,41,14.50
2017,09,03,05,42,14.50
2017,09,03,05,43,14.50
2017,09,03,05,44,14.50
2017,09,03,05,45,14.50
2017,09,03,05,46,14.60
2017,09,03,05,47,14.60
2017,09,03,05,48,14.60
2017,09,03,05,49,14.50
2017,09,03,05,50,14.50
2017,09,03,05,51,14.50
2017,09,03,05,52,14.50
2017,09,03,05,53,14.50
2017,09,03,05,54,14.60
2017,09,03,05,55,14.60
2017,09,03,05,56,14.60
2017,09,03,05,57,14.60
2017,09,03,05,58,14.60
2017,09,03,05,59,14.60
2017,09,03,06,00,14.60
2017,09,03,06,01,14.60
2017,09,03,06,02,14.60
2017,09,03,06,03,14.60
2017,09,03,06,04,14.60
2017,09,03,06,05,14.60
2017,09,03,06,06,14.70
2017,09,03,06,07,14.70
2017,09,03,06,08,14.70
2017,09,03,06,09,14.70
2017,09,03,06,10,14.70
2017,09,03,06,11,14.70
2017,09,03,06,12,14.70
2017,09,03,06,13,14.70
2017,09,03,06,14,14.70
2017,09,03,06,15,14.70
2017,09,03,06,16,14.60
2017,09,03,06,17,14.60
2017,09,03,06,18,14.60
2017,09,03,06,19,14.60
2017,09,03,06,20,14.60
2017,09,03,06,21,14.60
2017,09,03,06,22,14.60
2017,09,03,06,23,14.50
2017,09,03,06,24,14.50
2017,09,03,06,25,14.40
2017,09,03,06,26,14.40
2017,09,03,06,27,14.40
2017,09,03,06,28,14.40
2017,09,03,06,29,14.40
2017,09,03,06,30,14.40
2017,09,03,06,31,14.40
2017,09,03,06,32,14.40
2017,09,03,06,33,14.40
2017,09,03,06,34,14.40
2017,09,03,06,35,14.40
2017,09,03,06,36,14.40
2017,09,03,06,37,14.40
2017,09,03,06,38,14.30
2017,09,03,06,39,14.30
2017,09,03,06,40,14.30
2017,09,03,06,41,14.30
2017,09,03,06,42,14.30
2017,09,03,06,43,14.30
2017,09,03,06,44,14.30
2017,09,03,06,45,14.30
2017,09,03,06,46,14.30
2017,09,03,06,47,14.30
2017,09,03,06,48,14.30
2017,09,03,06,49,14.30
2017,09,03,06,50,14.30
2017,09,03,06,51,14.30
2017,09,03,06,52,14.30
2017,09,03,06,53,14.30
2017,09,03,06,54,14.30
2017,09,03,06,55,14.30
2017,09,03,06,56,14.20
2017,09,03,06,57,14.20
2017,09,03,06,58,14.20
2017,09,03,06,59,14.30
2017,09,03,07,00,14.30
2017,09,03,07,01,14.30
2017,09,03,07,02,14.30
2017,09,03,07,03,14.40
2017,09,03,07,04,14.40
2017,09,03,07,05,14.40
2017,09,03,07,06,14.40
2017,09,03,07,07,14.40
2017,09,03,07,08,14.40
2017,09,03,07,09,14.40
2017,09,03,07,10,14.40
2017,09,03,07,11,14.40
2017,09,03,07,12,14.40
2017,09,03,07,13,14.40
2017,09,03,07,14,14.40
2017,09,03,07,15,14.40
2017,09,03,07,16,14.50
2017,09,03,07,17,14.50
2017,09,03,07,18,14.50
2017,09,03,07,19,14.60
2017,09,03,07,20,14.60
2017,09,03,07,21,14.70
2017,09,03,07,22,14.70
2017,09,03,07,23,14.70
2017,09,03,07,24,14.70
2017,09,03,07,25,14.80
2017,09,03,07,26,14.80
2017,09,03,07,27,14.80
2017,09,03,07,28,14.80
2017,09,03,07,29,14.80
2017,09,03,07,30,14.80
2017,09,03,07,31,14.80
2017,09,03,07,32,14.80
2017,09,03,07,33,14.80
2017,09,03,07,34,14.80
2017,09,03,07,35,14.90
2017,09,03,07,36,14.90
2017,09,03,07,37,14.90
2017,09,03,07,38,15.00
2017,09,03,07,39,15.00
2017,09,03,07,40,15.10
2017,09,03,07,41,15.10
2017,09,03,07,42,15.10
2017,09,03,07,43,15.20
2017,09,03,07,44,15.20
2017,09,03,07,45,15.30
2017,09,03,07,46,15.30
2017,09,03,07,47,15.40
2017,09,03,07,48,15.40
2017,09,03,07,49,15.50
2017,09,03,07,50,15.50
2017,09,03,07,51,15.60
2017,09,03,07,52,15.60
2017,09,03,07,53,15.70
2017,09,03,07,54,15.70
2017,09,03,07,55,15.70
2017,09,03,07,56,15.80
2017,09,03,07,57,15.90
2017,09,03,07,58,15.90
2017,09,03,07,59,16.00
2017,09,03,08,00,16.10
2017,09,03,08,01,16.20
2017,09,03,08,02,16.30
2017,09,03,08,03,16.30
2017,09,03,08,04,16.40
2017,09,03,08,05,16.60
2017,09,03,08,06,16.70
2017,09,03,08,07,16.80
2017,09,03,08,08,16.90
2017,09,03,08,09,17.00
2017,09,03,08,10,17.00
2017,09,03,08,11,17.10
2017,09,03,08,12,17.10
2017,09,03,08,13,17.20
2017,09,03,08,14,17.20
2017,09,03,08,15,17.30
2017,09,03,08,16,17.30
2017,09,03,08,17,17.40
2017,09,03,08,18,17.60
2017,09,03,08,19,17.60
2017,09,03,08,20,17.70
2017,09,03,08,21,17.80
2017,09,03,08,22,17.80
2017,09,03,08,23,17.80
2017,09,03,08,24,17.80
2017,09,03,08,25,17.90
2017,09,03,08,26,17.90
2017,09,03,08,27,18.00
2017,09,03,08,28,18.10
2017,09,03,08,29,18.10
2017,09,03,08,30,18.20
2017,09,03,08,31,18.20
2017,09,03,08,32,18.30
2017,09,03,08,33,18.30
2017,09,03,08,34,18.40
2017,09,03,08,35,18.40
2017,09,03,08,36,18.50
2017,09,03,08,37,18.60
2017,09,03,08,38,18.70
2017,09,03,08,39,18.70
2017,09,03,08,40,18.80
2017,09,03,08,41,18.90
2017,09,03,08,42,19.00
2017,09,03,08,43,19.10
2017,09,03,08,44,19.20
2017,09,03,08,45,19.20
2017,09,03,08,46,19.40
2017,09,03,08,47,19.40
2017,09,03,08,48,19.50
2017,09,03,08,49,19.70
2017,09,03,08,50,19.70
2017,09,03,08,51,19.80
2017,09,03,08,52,19.90
2017,09,03,08,53,19.90
2017,09,03,08,54,20.00
2017,09,03,08,55,20.10
2017,09,03,08,56,20.10
2017,09,03,08,57,20.20
2017,09,03,08,58,20.20
2017,09,03,08,59,20.30
2017,09,03,09,00,20.30
2017,09,03,09,01,20.40
2017,09,03,09,02,20.50
2017,09,03,09,03,20.50
2017,09,03,09,04,20.60
2017,09,03,09,05,20.70
2017,09,03,09,06,20.80
2017,09,03,09,07,20.80
2017,09,03,09,08,20.90
2017,09,03,09,09,20.90
2017,09,03,09,10,21.10
2017,09,03,09,11,21.20
2017,09,03,09,12,21.20
2017,09,03,09,13,21.30
2017,09,03,09,14,21.30
2017,09,03,09,15,21.30
2017,09,03,09,16,21.40
2017,09,03,09,17,21.40
2017,09,03,09,18,21.50
2017,09,03,09,19,21.60
2017,09,03,09,20,21.70
2017,09,03,09,21,21.80
2017,09,03,09,22,21.90
2017,09,03,09,23,22.00
2017,09,03,09,24,22.10
2017,09,03,09,25,22.10
2017,09,03,09,26,22.20
2017,09,03,09,27,22.20
2017,09,03,09,28,22.30
2017,09,03,09,29,22.30
2017,09,03,09,30,22.40
2017,09,03,09,31,22.40
2017,09,03,09,32,22.50
2017,09,03,09,33,22.50
2017,09,03,09,34,22.60
2017,09,03,09,35,22.60
2017,09,03,09,36,22.70
2017,09,03,09,37,22.80
2017,09,03,09,38,22.80
2017,09,03,09,39,22.90
2017,09,03,09,40,23.10
2017,09,03,09,41,23.20
2017,09,03,09,42,23.40
2017,09,03,09,43,23.50
2017,09,03,09,44,23.60
2017,09,03,09,45,23.60
2017,09,03,09,46,23.60
2017,09,03,09,47,23.60
2017,09,03,09,48,23.60
2017,09,03,09,49,23.60
2017,09,03,09,50,23.70
2017,09,03,09,51,23.80
2017,09,03,09,52,23.90
2017,09,03,09,53,23.90
2017,09,03,09,54,24.00
2017,09,03,09,55,24.10
2017,09,03,09,56,24.20
2017,09,03,09,57,24.30
2017,09,03,09,58,24.40
2017,09,03,09,59,24.40
2017,09,03,10,00,24.50
2017,09,03,10,01,24.60
2017,09,03,10,02,24.80
2017,09,03,10,03,24.90
2017,09,03,10,04,25.00
2017,09,03,10,05,25.10
2017,09,03,10,06,25.10
2017,09,03,10,07,25.00
2017,09,03,10,08,24.90
2017,09,03,10,09,24.90
2017,09,03,10,10,24.90
2017,09,03,10,11,25.00
2017,09,03,10,12,25.10
2017,09,03,10,13,25.20
2017,09,03,10,14,25.30
2017,09,03,10,15,25.30
2017,09,03,10,16,25.30
2017,09,03,10,17,25.30
2017,09,03,10,18,25.30
2017,09,03,10,19,25.30
2017,09,03,10,20,25.40
2017,09,03,10,21,25.40
2017,09,03,10,22,25.40
2017,09,03,10,23,25.40
2017,09,03,10,24,25.40
2017,09,03,10,25,25.40
2017,09,03,10,26,25.50
2017,09,03,10,27,25.50
2017,09,03,10,28,25.50
2017,09,03,10,29,25.40
2017,09,03,10,30,25.30
2017,09,03,10,31,25.30
2017,09,03,10,32,25.40
2017,09,03,10,33,25.50
2017,09,03,10,34,25.60
2017,09,03,10,35,25.70
2017,09,03,10,36,25.70
2017,09,03,10,37,25.80
2017,09,03,10,38,25.90
2017,09,03,10,39,26.00
2017,09,03,10,40,26.00
2017,09,03,10,41,26.10
2017,09,03,10,42,26.30
2017,09,03,10,43,26.30
2017,09,03,10,44,26.40
2017,09,03,10,45,26.30
2017,09,03,10,46,26.30
2017,09,03,10,47,26.20
2017,09,03,10,48,26.30
2017,09,03,10,49,26.40
2017,09,03,10,50,26.50
2017,09,03,10,51,26.50
2017,09,03,10,52,26.60
2017,09,03,10,53,26.60
2017,09,03,10,54,26.60
2017,09,03,10,55,26.40
2017,09,03,10,56,26.30
2017,09,03,10,57,26.20
2017,09,03,10,58,26.20
2017,09,03,10,59,26.20
2017,09,03,11,00,26.30
2017,09,03,11,01,26.30
2017,09,03,11,02,26.40
2017,09,03,11,03,26.50
2017,09,03,11,04,26.40
2017,09,03,11,05,26.40
2017,09,03,11,06,26.30
2017,09,03,11,07,26.40
2017,09,03,11,08,26.40
2017,09,03,11,09,26.40
2017,09,03,11,10,26.40
2017,09,03,11,11,26.40
2017,09,03,11,12,26.40
2017,09,03,11,13,26.50
2017,09,03,11,14,26.50
2017,09,03,11,15,26.50
2017,09,03,11,16,26.60
2017,09,03,11,17,26.60
2017,09,03,11,18,26.50
2017,09,03,11,19,26.40
2017,09,03,11,20,26.20
2017,09,03,11,21,26.20
2017,09,03,11,22,26.20
2017,09,03,11,23,26.20
2017,09,03,11,24,26.30
2017,09,03,11,25,26.30
2017,09,03,11,26,26.30
2017,09,03,11,27,26.30
2017,09,03,11,28,26.20
2017,09,03,11,29,26.20
2017,09,03,11,30,26.20
2017,09,03,11,31,26.20
2017,09,03,11,32,26.10
2017,09,03,11,33,26.10
2017,09,03,11,34,26.20
2017,09,03,11,35,26.20
2017,09,03,11,36,26.20
2017,09,03,11,37,26.30
2017,09,03,11,38,26.40
2017,09,03,11,39,26.30
2017,09,03,11,40,26.20
2017,09,03,11,41,26.10
2017,09,03,11,42,26.10
2017,09,03,11,43,26.10
2017,09,03,11,44,26.10
2017,09,03,11,45,26.20
2017,09,03,11,46,26.30
2017,09,03,11,47,26.40
2017,09,03,11,48,26.30
2017,09,03,11,49,26.20
2017,09,03,11,50,26.30
2017,09,03,11,51,26.30
2017,09,03,11,52,26.30
2017,09,03,11,53,26.20
2017,09,03,11,54,26.20
2017,09,03,11,55,26.20
2017,09,03,11,56,26.20
2017,09,03,11,57,26.20
2017,09,03,11,58,26.20
2017,09,03,11,59,26.20
2017,09,03,12,00,26.30
2017,09,03,12,01,26.40
2017,09,03,12,02,26.60
2017,09,03,12,03,26.80
2017,09,03,12,04,26.90
2017,09,03,12,05,27.00
2017,09,03,12,06,27.10
2017,09,03,12,07,27.30
2017,09,03,12,08,27.40
2017,09,03,12,09,27.50
2017,09,03,12,10,27.60
2017,09,03,12,11,27.60
2017,09,03,12,12,27.60
2017,09,03,12,13,27.70
2017,09,03,12,14,27.80
2017,09,03,12,15,27.80
2017,09,03,12,16,27.80
2017,09,03,12,17,27.80
2017,09,03,12,18,27.70
2017,09,03,12,19,27.60
2017,09,03,12,20,27.50
2017,09,03,12,21,27.40
2017,09,03,12,22,27.40
2017,09,03,12,23,27.50
2017,09,03,12,24,27.60
2017,09,03,12,25,27.70
2017,09,03,12,26,27.70
2017,09,03,12,27,27.70
2017,09,03,12,28,27.70
2017,09,03,12,29,27.60
2017,09,03,12,30,27.50
2017,09,03,12,31,27.40
2017,09,03,12,32,27.30
2017,09,03,12,33,27.40
2017,09,03,12,34,27.50
2017,09,03,12,35,27.60
2017,09,03,12,36,27.70
2017,09,03,12,37,27.80
2017,09,03,12,38,27.70
2017,09,03,12,39,27.70
2017,09,03,12,40,27.80
2017,09,03,12,41,27.90
2017,09,03,12,42,28.00
2017,09,03,12,43,28.10
2017,09,03,12,44,28.10
2017,09,03,12,45,28.10
2017,09,03,12,46,28.10
2017,09,03,12,47,28.10
2017,09,03,12,48,28.10
2017,09,03,12,49,28.10
2017,09,03,12,50,28.20
2017,09,03,12,51,28.20
2017,09,03,12,52,28.30
2017,09,03,12,53,28.40
2017,09,03,12,54,28.40
2017,09,03,12,55,28.50
2017,09,03,12,56,28.50
2017,09,03,12,57,28.50
2017,09,03,12,58,28.60
2017,09,03,12,59,28.60
2017,09,03,13,00,28.70
2017,09,03,13,01,28.70
2017,09,03,13,02,28.70
2017,09,03,13,03,28.70
2017,09,03,13,04,28.50
2017,09,03,13,05,28.40
2017,09,03,13,06,28.30
2017,09,03,13,07,28.40
2017,09,03,13,08,28.30
2017,09,03,13,09,28.30
2017,09,03,13,10,28.30
2017,09,03,13,11,28.40
2017,09,03,13,12,28.60
2017,09,03,13,13,28.60
2017,09,03,13,14,28.70
2017,09,03,13,15,28.80
2017,09,03,13,16,28.80
2017,09,03,13,17,28.80
2017,09,03,13,18,28.70
2017,09,03,13,19,28.70
2017,09,03,13,20,28.70
2017,09,03,13,21,28.60
2017,09,03,13,22,28.60
2017,09,03,13,23,28.60
2017,09,03,13,24,28.60
2017,09,03,13,25,28.60
2017,09,03,13,26,28.70
2017,09,03,13,27,28.60
2017,09,03,13,28,28.40
2017,09,03,13,29,28.30
2017,09,03,13,30,28.20
2017,09,03,13,31,28.10
2017,09,03,13,32,28.00
2017,09,03,13,33,27.90
2017,09,03,13,34,27.70
2017,09,03,13,35,27.50
2017,09,03,13,36,27.40
2017,09,03,13,37,27.30
2017,09,03,13,38,27.40
2017,09,03,13,39,27.40
2017,09,03,13,40,27.50
2017,09,03,13,41,27.60
2017,09,03,13,42,27.80
2017,09,03,13,43,28.00
2017,09,03,13,44,28.10
2017,09,03,13,45,28.30
2017,09,03,13,46,28.30
2017,09,03,13,47,28.30
2017,09,03,13,48,28.40
2017,09,03,13,49,28.50
2017,09,03,13,50,28.60
2017,09,03,13,51,28.60
2017,09,03,13,52,28.70
2017,09,03,13,53,28.70
2017,09,03,13,54,28.70
2017,09,03,13,55,28.70
2017,09,03,13,56,28.70
2017,09,03,13,57,28.70
2017,09,03,13,58,28.80
2017,09,03,13,59,28.90
2017,09,03,14,00,29.00
2017,09,03,14,01,29.00
2017,09,03,14,02,29.10
2017,09,03,14,03,29.20
2017,09,03,14,04,29.20
2017,09,03,14,05,29.20
2017,09,03,14,06,29.20
2017,09,03,14,07,29.20
2017,09,03,14,08,29.20
2017,09,03,14,09,29.10
2017,09,03,14,10,29.00
2017,09,03,14,11,29.00
2017,09,03,14,12,29.00
2017,09,03,14,13,29.10
2017,09,03,14,14,29.20
2017,09,03,14,15,29.30
2017,09,03,14,16,29.40
2017,09,03,14,17,29.40
2017,09,03,14,18,29.40
2017,09,03,14,19,29.40
2017,09,03,14,20,29.50
2017,09,03,14,21,29.60
2017,09,03,14,22,29.70
2017,09,03,14,23,29.80
2017,09,03,14,24,29.70
2017,09,03,14,25,29.60
2017,09,03,14,26,29.60
2017,09,03,14,27,29.50
2017,09,03,14,28,29.40
2017,09,03,14,29,29.30
2017,09,03,14,30,29.30
2017,09,03,14,31,29.30
2017,09,03,14,32,29.40
2017,09,03,14,33,29.40
2017,09,03,14,34,29.40
2017,09,03,14,35,29.50
2017,09,03,14,36,29.60
2017,09,03,14,37,29.60
2017,09,03,14,38,29.60
2017,09,03,14,39,29.50
2017,09,03,14,40,29.50
2017,09,03,14,41,29.60
2017,09,03,14,42,29.60
2017,09,03,14,43,29.70
2017,09,03,14,44,29.60
2017,09,03,14,45,29.70
2017,09,03,14,46,29.70
2017,09,03,14,47,29.80
2017,09,03,14,48,29.80
2017,09,03,14,49,29.80
2017,09,03,14,50,29.80
2017,09,03,14,51,29.70
2017,09,03,14,52,29.70
2017,09,03,14,53,29.70
2017,09,03,14,54,29.70
2017,09,03,14,55,29.80
2017,09,03,14,56,29.70
2017,09,03,14,57,29.60
2017,09,03,14,58,29.60
2017,09,03,14,59,29.50
2017,09,03,15,00,29.50
2017,09,03,15,01,29.40
2017,09,03,15,02,29.40
2017,09,03,15,03,29.40
2017,09,03,15,04,29.30
2017,09,03,15,05,29.30
2017,09,03,15,06,29.20
2017,09,03,15,07,29.10
2017,09,03,15,08,29.10
2017,09,03,15,09,29.10
2017,09,03,15,10,29.20
2017,09,03,15,11,29.30
2017,09,03,15,12,29.50
2017,09,03,15,13,29.70
2017,09,03,15,14,29.80
2017,09,03,15,15,30.00
2017,09,03,15,16,30.20
2017,09,03,15,17,30.30
2017,09,03,15,18,30.40
2017,09,03,15,19,30.40
2017,09,03,15,20,30.50
2017,09,03,15,21,30.60
2017,09,03,15,22,30.60
2017,09,03,15,23,30.50
2017,09,03,15,24,30.50
2017,09,03,15,25,30.40
2017,09,03,15,26,30.30
2017,09,03,15,27,30.20
2017,09,03,15,28,30.10
2017,09,03,15,29,30.00
2017,09,03,15,30,29.90
2017,09,03,15,31,29.70
2017,09,03,15,32,29.70
2017,09,03,15,33,29.60
2017,09,03,15,34,29.60
2017,09,03,15,35,29.50
2017,09,03,15,36,29.40
2017,09,03,15,37,29.20
2017,09,03,15,38,28.90
2017,09,03,15,39,28.70
2017,09,03,15,40,28.60
2017,09,03,15,41,28.60
2017,09,03,15,42,28.60
2017,09,03,15,43,28.70
2017,09,03,15,44,28.80
2017,09,03,15,45,28.90
2017,09,03,15,46,29.00
2017,09,03,15,47,29.10
2017,09,03,15,48,29.20
2017,09,03,15,49,29.30
2017,09,03,15,50,29.40
2017,09,03,15,51,29.50
2017,09,03,15,52,29.60
2017,09,03,15,53,29.70
2017,09,03,15,54,29.80
2017,09,03,15,55,29.90
2017,09,03,15,56,30.00
2017,09,03,15,57,30.10
2017,09,03,15,58,30.10
2017,09,03,15,59,30.20
2017,09,03,16,00,30.40
2017,09,03,16,01,30.60
2017,09,03,16,02,30.60
2017,09,03,16,03,30.60
2017,09,03,16,04,30.60
2017,09,03,16,05,30.60
2017,09,03,16,06,30.60
2017,09,03,16,07,30.60
2017,09,03,16,08,30.60
2017,09,03,16,09,30.50
2017,09,03,16,10,30.40
2017,09,03,16,11,30.30
2017,09,03,16,12,30.20
2017,09,03,16,13,30.20
2017,09,03,16,14,30.20
2017,09,03,16,15,30.20
2017,09,03,16,16,30.20
2017,09,03,16,17,30.30
2017,09,03,16,18,30.20
2017,09,03,16,19,30.20
2017,09,03,16,20,30.00
2017,09,03,16,21,29.90
2017,09,03,16,22,29.60
2017,09,03,16,23,29.20
2017,09,03,16,24,29.00
2017,09,03,16,25,28.80
2017,09,03,16,26,28.80
2017,09,03,16,27,28.80
2017,09,03,16,28,28.80
2017,09,03,16,29,28.60
2017,09,03,16,30,28.40
2017,09,03,16,31,28.20
2017,09,03,16,32,28.00
2017,09,03,16,33,27.90
2017,09,03,16,34,27.80
2017,09,03,16,35,27.70
2017,09,03,16,36,27.80
2017,09,03,16,37,27.70
2017,09,03,16,38,27.60
2017,09,03,16,39,27.50
2017,09,03,16,40,27.40
2017,09,03,16,41,27.50
2017,09,03,16,42,27.40
2017,09,03,16,43,27.40
2017,09,03,16,44,27.30
2017,09,03,16,45,27.20
2017,09,03,16,46,27.20
2017,09,03,16,47,27.30
2017,09,03,16,48,27.20
2017,09,03,16,49,27.10
2017,09,03,16,50,27.00
2017,09,03,16,51,26.90
2017,09,03,16,52,26.90
2017,09,03,16,53,26.90
2017,09,03,16,54,26.90
2017,09,03,16,55,27.00
2017,09,03,16,56,27.00
2017,09,03,16,57,27.00
2017,09,03,16,58,27.00
2017,09,03,16,59,27.00
2017,09,03,17,00,27.00
2017,09,03,17,01,27.00
2017,09,03,17,02,26.90
2017,09,03,17,03,26.90
2017,09,03,17,04,26.90
2017,09,03,17,05,26.90
2017,09,03,17,06,26.90
2017,09,03,17,07,27.00
2017,09,03,17,08,27.00
2017,09,03,17,09,26.90
2017,09,03,17,10,26.90
2017,09,03,17,11,26.90
2017,09,03,17,12,26.90
2017,09,03,17,13,26.80
2017,09,03,17,14,26.80
2017,09,03,17,15,26.80
2017,09,03,17,16,26.80
2017,09,03,17,17,26.90
2017,09,03,17,18,26.90
2017,09,03,17,19,26.90